Skip Page Navigation
NASA JPL Caltech
NASA Logo - Jet Propulsion Laboratory + View the NASA Portal
+ Center for Near-Earth Object Studies
JPL Home Earth Solar System Stars & Galaxies Technology
JPL Solar System Dynamics
BODIES ORBITS EPHEMERIDES TOOLS PHYSICAL DATA DISCOVERY FAQ SITE MAP
IMPORTANT: The SSD Announcement email list is now available. Major changes are coming in the near future, including possible hostname and/or URL changes. To be notified of such changes, subscribe to this email list.

Please visit this page for more details.


JPL Small-Body Database Browser
Search: [ help ]  
359747 (2011 UV73)
Classification: Main-belt Asteroid          SPK-ID: 2359747
Ephemeris | Orbit Diagram | Orbital Elements | Mission Design | Physical Parameters | Discovery Circumstances ]

[ show orbit diagram ]
Orbital Elements at Epoch 2458600.5 (2019-Apr-27.0) TDB
Reference: JPL 12 (heliocentric ecliptic J2000)
 Element Value Uncertainty (1-sigma)   Units 
e .1458937728458559 9.947e-08  
a 2.583249793334529 3.3022e-08 au
q 2.206369734781677 2.7254e-07 au
i .7024701932996418 6.8951e-06 deg
node 130.3865180518723 0.00069666 deg
peri 239.6372992553567 0.00069726 deg
M 316.2496697826142 2.3893e-05 deg
tp 2458784.800649784173
(2019-Oct-28.30064978)
9.9235e-05 TDB
period 1516.519614655074
4.15
2.9079e-05
7.961e-08
d
yr
n .2373856536513578 4.5519e-09 deg/d
Q 2.96012985188738 3.784e-08 au
  Orbit Determination Parameters
   # obs. used (total)      133  
   data-arc span      9156 days (25.07 yr)  
   first obs. used      1994-09-05  
   last obs. used      2019-09-30  
   planetary ephem.      DE431  
   SB-pert. ephem.      SB431-N16  
   condition code      0  
   norm. resid. RMS      .68853  
   source      ORB  
   producer      Otto Matic  
   solution date      2019-Nov-08 11:17:56  

Additional Information
 Earth MOID = 1.20513 au 
 Jupiter MOID = 2.49917 au 
 T_jup = 3.408 
[ show covariance matrix ]

Ephemeris | Orbit Diagram | Orbital Elements | Mission Design | Physical Parameters | Discovery Circumstances ]

Physical Parameter Table
Parameter Symbol Value Units Sigma Reference Notes
absolute magnitude H 17.5   n/a MPO300490  

359747 (2011 UV73)          Discovered 2007-Sep-15 by Mt. Lemmon Survey at Mount Lemmon
Reference: 20130327/Numbers.arcLast Updated: 2013-03-29

Alternate Designations
 2011 UV73 = 1994 RZ27 = 2007 RD274 
Ephemeris | Orbit Diagram | Orbital Elements | Mission Design | Physical Parameters | Discovery Circumstances ]
ABOUT SSD CREDITS/AWARDS PRIVACY/COPYRIGHT GLOSSARY LINKS
FirstGov
(server date/time)  
NASA Home Page
Site Manager:   Ryan S. Park
Webmaster  Alan B. Chamberlin